Terug naar catalogus

SL-12 DEB

LostHEO
NORAD 25808·DEBRIS·🇷🇺 Russia

Gelanceerd Sep 16, 1987 vanaf Baikonur Cosmodrome

Loading…

Volgende Passages (komende 24 uur)

TLE

VerouderdSource: Space-Track

Epoch: Sep 11, 2024, 09:00 UTC

1 25808U 87079T   24255.37518699  .00580426  00000-0  52053+0 0  9999
2 25808  64.8076 162.7625 4674692  73.0506  10.2823  5.97318769491605

Volg SL-12 DEB in realtime met AllMySat

Download on the App Store